Home > Weather > Sosnowiec > Past weeks

Flag for Poland Past Weather in Sosnowiec, Poland — Yesterday and Last 2 Weeks

Now
68 °F

Passing clouds.


Feels Like: 68 °F
Forecast: 63 / 82 °F
Wind: 3 mph from North

Location: Katowice Airport

Current Time: Jul 26, 2016 at 8:39:20 AM

Latest Report: Jul 26, 2016 at 8:00 AM


Visibility: N/A

Pressure: 30.04 "Hg

Humidity: 88%

Dew Point: 64 °F

Location of SosnowiecLocation

Past Weather in Sosnowiec — Graph

°F

Sosnowiec Temperature Yesterday

Maximum temperature yesterday: 77 °F (at 1:00 PM)
Minimum temperature yesterday: 63 °F (at 7:00 AM)
Average temperature yesterday: 69 °F

High & Low Weather Summary for the Past Weeks

 TemperatureHumidityPressure
High90 °F (Jul 11, 3:00 PM)100% (Jul 12, 9:30 AM)30.21 "Hg (Jul 12, 9:30 AM)
Low46 °F (Jul 21, 4:00 AM)36% (Jul 22, 6:30 PM)29.59 "Hg (Jul 14, 10:00 AM)
Average65 °F79%30.01 "Hg
* Reported Jul 11 7:00 AM — Jul 26 7:30 AM, Sosnowiec, Weather by CustomWeather, © 2016

Note: Actual official high and low records may vary slightly from our data, if they occured in-between our weather recording intervals... More about our weather records

Advertising

Sosnowiec Weather History for the Previous 24 Hours

Scroll right to see more
 ConditionsComfort  
Time TempWeatherWind HumidityBarometerVisibility
7:30 AM
Tue, Jul 26
68 °FPassing clouds.3 mph88%30.04 "HgN/A
7:00 AM66 °FSunny.2 mph94%30.04 "Hg10 mi
6:30 AM66 °FSunny.5 mph88%30.04 "Hg10 mi
6:00 AM66 °FPassing clouds.3 mph88%30.04 "HgN/A
5:30 AM66 °FSprinkles. Passing clouds.2 mph88%30.04 "HgN/A
5:00 AM66 °FPassing clouds.3 mph88%30.04 "HgN/A
4:30 AM66 °FClear.3 mph88%30.04 "Hg10 mi
4:00 AM64 °FClear.3 mph100%30.04 "Hg10 mi
3:30 AM64 °FClear.3 mph100%30.04 "Hg6 mi
3:00 AM64 °FClear.3 mph100%30.04 "Hg6 mi
2:30 AM64 °FClear.2 mph100%30.04 "Hg5 mi
2:00 AM64 °FClear.3 mph100%30.04 "Hg5 mi
1:30 AM64 °FFog.2 mph100%30.04 "Hg3 mi
1:00 AM64 °FClear.5 mph100%30.04 "Hg4 mi
12:30 AM64 °FClear.2 mph100%30.04 "Hg5 mi
12:00 AM64 °FClear.1 mph100%30.04 "Hg5 mi
11:30 PM
Mon, Jul 25
66 °FClear.2 mph94%30.04 "Hg10 mi
11:00 PM66 °FClear.2 mph94%30.04 "Hg10 mi
10:30 PM68 °FPassing clouds.3 mph88%30.04 "HgN/A
10:00 PM68 °FPassing clouds.3 mph88%30.04 "HgN/A
9:30 PM70 °FSunny.5 mph88%30.04 "Hg10 mi
9:00 PM70 °FSunny.2 mph88%30.01 "Hg10 mi
8:30 PM72 °FSunny.3 mph83%30.01 "Hg10 mi
8:00 PM72 °FSunny.2 mph83%30.04 "Hg10 mi
7:30 PM73 °FSunny.3 mph78%30.04 "Hg10 mi
7:00 PM73 °FPassing clouds.2 mph78%30.04 "HgN/A
6:30 PM73 °FPassing clouds.2 mph74%30.04 "HgN/A
6:00 PM73 °FPassing clouds.2 mph78%30.04 "HgN/A
5:30 PM73 °FPassing clouds.3 mph74%30.01 "HgN/A
5:00 PM73 °FSprinkles. Scattered clouds.6 mph74%30.01 "HgN/A
4:30 PM75 °FSprinkles. Passing clouds.5 mph69%30.01 "HgN/A
4:00 PM75 °FScattered clouds.1 mph65%30.01 "HgN/A
3:30 PM75 °FScattered clouds.2 mph78%30.04 "HgN/A
3:00 PM77 °FThundershowers. Scattered clouds.7 mph61%30.01 "HgN/A
2:30 PM75 °FSprinkles. Scattered clouds.8 mph78%30.04 "Hg5 mi
2:00 PM77 °FThundershowers. Scattered clouds.8 mph69%30.04 "HgN/A
1:30 PM77 °FThunderstorms. Scattered clouds.3 mph65%30.04 "HgN/A
1:00 PM77 °FScattered clouds.6 mph69%30.04 "HgN/A
12:30 PM75 °FPassing clouds.3 mph74%30.04 "HgN/A
12:00 PM73 °FScattered clouds.6 mph83%30.04 "HgN/A
11:30 AM72 °FPartly sunny.5 mph88%30.04 "HgN/A
11:00 AM73 °FPassing clouds.5 mph83%30.04 "HgN/A
10:30 AM72 °FScattered clouds.2 mph83%30.04 "HgN/A
10:00 AM68 °FScattered clouds.2 mph94%30.04 "Hg5 mi
9:30 AM66 °FSprinkles. Scattered clouds.2 mph94%30.04 "Hg4 mi
9:00 AM66 °FSprinkles. Scattered clouds.2 mph94%30.04 "Hg4 mi
8:30 AM64 °FSprinkles. Broken clouds.3 mph100%30.04 "Hg4 mi
8:00 AM64 °FSprinkles. Scattered clouds.3 mph94%30.04 "Hg5 mi
Weather by CustomWeather, © 2016

See weather overviewHow to use our weather pages